Year,Month,Day,Hour,Minute,Value (Times are PST for barometer in hPa)
2020,12,02,00,00,906.86
2020,12,02,00,01,907.23
2020,12,02,00,02,907.41
2020,12,02,00,03,907.39
2020,12,02,00,04,907.57
2020,12,02,00,05,907.51
2020,12,02,00,06,907.51
2020,12,02,00,07,907.22
2020,12,02,00,08,907.15
2020,12,02,00,09,907.64
2020,12,02,00,10,907.76
2020,12,02,00,11,908.95
2020,12,02,00,12,909.24
2020,12,02,00,13,908.89
2020,12,02,00,14,908.64
2020,12,02,00,15,908.42
2020,12,02,00,16,908.50
2020,12,02,00,17,908.65
2020,12,02,00,18,908.75
2020,12,02,00,19,909.21
2020,12,02,00,20,909.42
2020,12,02,00,21,909.30
2020,12,02,00,22,909.28
2020,12,02,00,23,909.20
2020,12,02,00,24,908.93
2020,12,02,00,25,909.09
2020,12,02,00,26,908.68
2020,12,02,00,27,908.52
2020,12,02,00,28,908.24
2020,12,02,00,29,908.06
2020,12,02,00,30,908.03
2020,12,02,00,31,908.35
2020,12,02,00,32,908.84
2020,12,02,00,33,908.82
2020,12,02,00,34,908.31
2020,12,02,00,35,908.58
2020,12,02,00,36,908.43
2020,12,02,00,37,908.37
2020,12,02,00,38,908.60
2020,12,02,00,39,908.69
2020,12,02,00,40,908.87
2020,12,02,00,41,908.96
2020,12,02,00,42,908.86
2020,12,02,00,43,908.69
2020,12,02,00,44,909.10
2020,12,02,00,45,909.05
2020,12,02,00,46,908.68
2020,12,02,00,47,908.82
2020,12,02,00,48,909.07
2020,12,02,00,49,908.68
2020,12,02,00,50,908.73
2020,12,02,00,51,908.21
2020,12,02,00,52,907.91
2020,12,02,00,53,907.89
2020,12,02,00,54,907.83
2020,12,02,00,55,907.47
2020,12,02,00,56,907.76
2020,12,02,00,57,907.46
2020,12,02,00,58,907.33
2020,12,02,00,59,907.32
2020,12,02,01,00,908.37
2020,12,02,01,01,908.23
2020,12,02,01,02,908.66
2020,12,02,01,03,908.34
2020,12,02,01,04,908.39
2020,12,02,01,05,908.40
2020,12,02,01,06,908.49
2020,12,02,01,07,908.38
2020,12,02,01,08,908.27
2020,12,02,01,09,908.30
2020,12,02,01,10,908.33
2020,12,02,01,11,908.82
2020,12,02,01,12,908.41
2020,12,02,01,13,908.10
2020,12,02,01,14,908.41
2020,12,02,01,15,908.74
2020,12,02,01,16,908.74
2020,12,02,01,17,908.54
2020,12,02,01,18,908.34
2020,12,02,01,19,908.23
2020,12,02,01,20,908.50
2020,12,02,01,21,908.43
2020,12,02,01,22,908.40
2020,12,02,01,23,908.79
2020,12,02,01,24,908.16
2020,12,02,01,25,908.25
2020,12,02,01,26,907.96
2020,12,02,01,27,908.06
2020,12,02,01,28,907.82
2020,12,02,01,29,907.69
2020,12,02,01,30,907.59
2020,12,02,01,31,907.52
2020,12,02,01,32,907.52
2020,12,02,01,33,907.99
2020,12,02,01,34,907.97
2020,12,02,01,35,907.55
2020,12,02,01,36,907.48
2020,12,02,01,37,907.21
2020,12,02,01,38,906.74
2020,12,02,01,39,906.74
2020,12,02,01,40,907.69
2020,12,02,01,41,907.48
2020,12,02,01,42,908.03
2020,12,02,01,43,907.89
2020,12,02,01,44,908.37
2020,12,02,01,45,908.43
2020,12,02,01,46,908.51
2020,12,02,01,47,908.64
2020,12,02,01,48,908.23
2020,12,02,01,49,908.16
2020,12,02,01,50,908.05
2020,12,02,01,51,907.88
2020,12,02,01,52,907.68
2020,12,02,01,53,907.55
2020,12,02,01,54,907.61
2020,12,02,01,55,907.97
2020,12,02,01,56,908.24
2020,12,02,01,57,908.35
2020,12,02,01,58,907.87
2020,12,02,01,59,908.04
2020,12,02,02,00,908.20
2020,12,02,02,01,908.15
2020,12,02,02,02,907.10
2020,12,02,02,03,907.68
2020,12,02,02,04,907.24
2020,12,02,02,05,907.50
2020,12,02,02,06,907.63
2020,12,02,02,07,907.47
2020,12,02,02,08,907.41
2020,12,02,02,09,907.36
2020,12,02,02,10,907.42
2020,12,02,02,11,907.35
2020,12,02,02,12,907.12
2020,12,02,02,13,907.18
2020,12,02,02,14,907.21
2020,12,02,02,15,907.47
2020,12,02,02,16,907.60
2020,12,02,02,17,907.47
2020,12,02,02,18,907.43
2020,12,02,02,19,907.50
2020,12,02,02,20,907.62
2020,12,02,02,21,907.86
2020,12,02,02,22,907.56
2020,12,02,02,23,907.35
2020,12,02,02,24,907.35
2020,12,02,02,25,907.34
2020,12,02,02,26,907.10
2020,12,02,02,27,906.62
2020,12,02,02,28,906.75
2020,12,02,02,29,906.93
2020,12,02,02,30,906.61
2020,12,02,02,31,906.69
2020,12,02,02,32,906.89
2020,12,02,02,33,907.38
2020,12,02,02,34,907.42
2020,12,02,02,35,906.91
2020,12,02,02,36,907.38
2020,12,02,02,37,907.56
2020,12,02,02,38,907.18
2020,12,02,02,39,907.06
2020,12,02,02,40,907.20
2020,12,02,02,41,907.32
2020,12,02,02,42,907.22
2020,12,02,02,43,906.55
2020,12,02,02,44,906.22
2020,12,02,02,45,906.73
2020,12,02,02,46,906.47
2020,12,02,02,47,906.10
2020,12,02,02,48,906.32
2020,12,02,02,49,906.38
2020,12,02,02,50,906.29
2020,12,02,02,51,906.41
2020,12,02,02,52,906.47
2020,12,02,02,53,906.20
2020,12,02,02,54,906.47
2020,12,02,02,55,906.43
2020,12,02,02,56,906.17
2020,12,02,02,57,905.64
2020,12,02,02,58,905.36
2020,12,02,02,59,905.77
2020,12,02,03,00,905.62
2020,12,02,03,01,905.42
2020,12,02,03,02,905.19
2020,12,02,03,03,904.51
2020,12,02,03,04,904.79
2020,12,02,03,05,904.65
2020,12,02,03,06,904.66
2020,12,02,03,07,904.70
2020,12,02,03,08,904.86
2020,12,02,03,09,904.68
2020,12,02,03,10,904.57
2020,12,02,03,11,904.52
2020,12,02,03,12,904.17
2020,12,02,03,13,903.69
2020,12,02,03,14,903.52
2020,12,02,03,15,903.29
2020,12,02,03,16,903.50
2020,12,02,03,17,904.02
2020,12,02,03,18,903.94
2020,12,02,03,19,903.60
2020,12,02,03,20,903.20
2020,12,02,03,21,903.59
2020,12,02,03,22,903.49
2020,12,02,03,23,903.49
2020,12,02,03,24,903.53
2020,12,02,03,25,903.50
2020,12,02,03,26,903.19
2020,12,02,03,27,903.11
2020,12,02,03,28,902.91
2020,12,02,03,29,902.98
2020,12,02,03,30,902.65
2020,12,02,03,31,902.16
2020,12,02,03,32,901.87
2020,12,02,03,33,901.87
2020,12,02,03,34,902.19
2020,12,02,03,35,902.06
2020,12,02,03,36,902.01
2020,12,02,03,37,902.03
2020,12,02,03,38,902.09
2020,12,02,03,39,901.95
2020,12,02,03,40,902.08
2020,12,02,03,41,902.01
2020,12,02,03,42,901.97
2020,12,02,03,43,901.68
2020,12,02,03,44,901.85
2020,12,02,03,45,902.02
2020,12,02,03,46,901.66
2020,12,02,03,47,901.38
2020,12,02,03,48,901.35
2020,12,02,03,49,901.12
2020,12,02,03,50,901.15
2020,12,02,03,51,901.53
2020,12,02,03,52,901.62
2020,12,02,03,53,901.86
2020,12,02,03,54,902.05
2020,12,02,03,55,902.05
2020,12,02,03,56,902.17
2020,12,02,03,57,901.91
2020,12,02,03,58,901.61
2020,12,02,03,59,901.47
2020,12,02,04,00,901.46
2020,12,02,04,01,901.35
2020,12,02,04,02,901.43
2020,12,02,04,03,901.62
2020,12,02,04,04,901.53
2020,12,02,04,08,901.59
2020,12,02,04,09,902.06
2020,12,02,04,10,902.33
2020,12,02,04,11,902.40
2020,12,02,04,12,901.95
2020,12,02,04,13,901.69
2020,12,02,04,14,901.66
2020,12,02,04,15,902.87
2020,12,02,04,16,903.08
2020,12,02,04,17,901.62
2020,12,02,04,18,901.24
2020,12,02,04,19,901.22
2020,12,02,04,20,902.23
2020,12,02,04,21,902.43
2020,12,02,04,22,902.44
2020,12,02,04,23,902.93
2020,12,02,04,24,902.83
2020,12,02,04,25,902.81
2020,12,02,04,26,904.05
2020,12,02,04,27,904.17
2020,12,02,04,28,903.37
2020,12,02,04,29,903.19
2020,12,02,04,30,903.31
2020,12,02,04,31,903.19
2020,12,02,04,32,903.18
2020,12,02,04,33,902.38
2020,12,02,04,34,902.34
2020,12,02,04,35,903.91
2020,12,02,04,36,904.06
2020,12,02,04,37,904.06
2020,12,02,04,38,902.34
2020,12,02,04,39,902.17
2020,12,02,04,40,903.88
2020,12,02,04,41,903.32
2020,12,02,04,42,903.64
2020,12,02,04,43,903.84
2020,12,02,04,44,903.51
2020,12,02,04,45,903.59
2020,12,02,04,46,903.59
2020,12,02,04,47,902.67
2020,12,02,04,48,902.38
2020,12,02,04,49,902.37
2020,12,02,04,50,902.37
2020,12,02,04,51,900.55
2020,12,02,04,52,900.47
2020,12,02,04,53,901.69
2020,12,02,04,54,901.69
2020,12,02,04,55,900.37
2020,12,02,04,56,900.98
2020,12,02,04,57,901.08
2020,12,02,04,58,901.15
2020,12,02,04,59,901.10
2020,12,02,05,00,900.03
2020,12,02,05,01,900.03
2020,12,02,05,02,901.08
2020,12,02,05,03,901.08
2020,12,02,05,04,900.31
2020,12,02,05,05,900.33
2020,12,02,05,06,900.10
2020,12,02,05,09,900.75
2020,12,02,05,10,900.73
2020,12,02,05,11,900.38
2020,12,02,05,12,900.55
2020,12,02,05,13,900.78
2020,12,02,05,14,900.83
2020,12,02,05,15,901.66
2020,12,02,05,16,901.43
2020,12,02,05,17,901.82
2020,12,02,05,18,902.01
2020,12,02,05,19,902.49
2020,12,02,05,20,902.24
2020,12,02,05,21,901.94
2020,12,02,05,22,902.04
2020,12,02,05,23,902.42
2020,12,02,05,24,902.24
2020,12,02,05,25,902.35
2020,12,02,05,26,902.47
2020,12,02,05,27,902.17
2020,12,02,05,28,902.53
2020,12,02,05,29,902.10
2020,12,02,05,30,902.11
2020,12,02,05,31,901.93
2020,12,02,05,32,901.92
2020,12,02,05,33,901.80
2020,12,02,05,34,901.68
2020,12,02,05,35,900.51
2020,12,02,05,36,900.51
2020,12,02,05,37,900.49
2020,12,02,05,38,900.31
2020,12,02,05,46,900.17
2020,12,02,05,47,900.25
2020,12,02,05,48,900.84
2020,12,02,05,49,901.33
2020,12,02,05,50,901.33
2020,12,02,05,51,901.12
2020,12,02,05,52,901.15
2020,12,02,05,53,901.15
2020,12,02,05,54,901.20
2020,12,02,05,55,901.50
2020,12,02,05,56,901.34
2020,12,02,05,57,901.32
2020,12,02,05,58,901.61
2020,12,02,05,59,901.45
2020,12,02,06,00,901.74
2020,12,02,06,01,901.42
2020,12,02,06,02,901.70
2020,12,02,06,03,901.77
2020,12,02,06,04,901.85
2020,12,02,06,05,901.96
2020,12,02,06,06,902.07
2020,12,02,06,07,902.43
2020,12,02,06,08,902.02
2020,12,02,06,09,902.50
2020,12,02,06,10,902.30
2020,12,02,06,11,902.10
2020,12,02,06,12,902.01
2020,12,02,06,13,902.06
2020,12,02,06,14,902.19
2020,12,02,06,15,902.24
2020,12,02,06,16,902.21
2020,12,02,06,17,902.53
2020,12,02,06,18,902.51
2020,12,02,06,19,902.62
2020,12,02,06,20,902.91
2020,12,02,06,21,902.51
2020,12,02,06,22,902.25
2020,12,02,06,23,901.47
2020,12,02,06,24,901.93
2020,12,02,06,25,902.18
2020,12,02,06,26,902.17
2020,12,02,06,27,902.14
2020,12,02,06,28,902.39
2020,12,02,06,29,902.49
2020,12,02,06,30,902.77
2020,12,02,06,31,903.05
2020,12,02,06,32,903.22
2020,12,02,06,33,903.89
2020,12,02,06,34,904.26
2020,12,02,06,35,904.02
2020,12,02,06,36,904.16
2020,12,02,06,37,904.29
2020,12,02,06,38,903.98
2020,12,02,06,39,904.01
2020,12,02,06,40,904.18
2020,12,02,06,41,903.82
2020,12,02,06,42,903.56
2020,12,02,06,43,903.33
2020,12,02,06,44,903.05
2020,12,02,06,45,903.35
2020,12,02,06,46,903.13
2020,12,02,06,47,902.81
2020,12,02,06,48,902.50
2020,12,02,06,49,901.80
2020,12,02,06,50,901.89
2020,12,02,06,51,902.28
2020,12,02,06,52,902.62
2020,12,02,06,53,902.64
2020,12,02,06,54,902.64
2020,12,02,06,55,902.45
2020,12,02,06,56,902.00
2020,12,02,06,57,901.85
2020,12,02,06,58,901.68
2020,12,02,06,59,901.85
2020,12,02,07,00,902.08
2020,12,02,07,01,901.91
2020,12,02,07,02,902.05
2020,12,02,07,03,902.09
2020,12,02,07,04,902.35
2020,12,02,07,05,902.06
2020,12,02,07,06,902.18
2020,12,02,07,07,902.44
2020,12,02,07,08,902.27
2020,12,02,07,09,901.79
2020,12,02,07,10,900.94
2020,12,02,07,11,900.90
2020,12,02,07,12,900.69
2020,12,02,07,13,900.35
2020,12,02,07,14,900.57
2020,12,02,07,15,900.94
2020,12,02,07,16,900.81
2020,12,02,07,17,900.59
2020,12,02,07,18,900.29
2020,12,02,07,19,900.07
2020,12,02,07,20,900.27
2020,12,02,07,21,900.66
2020,12,02,07,22,900.86
2020,12,02,07,23,901.20
2020,12,02,07,24,901.40
2020,12,02,07,25,901.24
2020,12,02,07,26,901.15
2020,12,02,07,27,901.57
2020,12,02,07,28,902.18
2020,12,02,07,29,902.28
2020,12,02,07,30,902.51
2020,12,02,07,31,902.62
2020,12,02,07,32,902.95
2020,12,02,07,33,902.53
2020,12,02,07,34,901.74
2020,12,02,07,35,901.66
2020,12,02,07,36,901.66
2020,12,02,07,37,901.58
2020,12,02,07,38,901.36
2020,12,02,07,39,901.19
2020,12,02,07,40,901.19
2020,12,02,07,41,901.74
2020,12,02,07,42,902.31
2020,12,02,07,43,902.10
2020,12,02,07,44,902.10
2020,12,02,07,45,902.85
2020,12,02,07,46,904.03
2020,12,02,07,47,903.92
2020,12,02,07,48,903.56
2020,12,02,07,49,903.56
2020,12,02,07,50,903.78
2020,12,02,07,51,904.04
2020,12,02,07,52,903.94
2020,12,02,07,53,903.76
2020,12,02,07,54,904.11
2020,12,02,07,55,904.61
2020,12,02,07,56,904.62
2020,12,02,07,57,904.48
2020,12,02,07,58,904.33
2020,12,02,07,59,904.35
2020,12,02,08,00,904.37
2020,12,02,08,01,904.24
2020,12,02,08,02,904.30
2020,12,02,08,03,904.43
2020,12,02,08,04,904.55
2020,12,02,08,05,904.59
2020,12,02,08,06,904.39
2020,12,02,08,07,904.10
2020,12,02,08,08,904.49
2020,12,02,08,09,904.92
2020,12,02,08,10,905.02
2020,12,02,08,11,905.17
2020,12,02,08,12,905.12
2020,12,02,08,13,904.75
2020,12,02,08,14,904.70
2020,12,02,08,15,904.83
2020,12,02,08,16,904.67
2020,12,02,08,17,904.84
2020,12,02,08,18,905.08
2020,12,02,08,19,904.52
2020,12,02,08,20,903.96
2020,12,02,08,21,903.96
2020,12,02,08,22,903.96
2020,12,02,08,23,904.46
2020,12,02,08,24,904.82
2020,12,02,08,25,904.58
2020,12,02,08,26,904.28
2020,12,02,08,27,904.26
2020,12,02,08,28,904.53
2020,12,02,08,29,904.76
2020,12,02,08,30,904.94
2020,12,02,08,31,905.13
2020,12,02,08,32,905.22
2020,12,02,08,33,905.22
2020,12,02,08,34,903.48
2020,12,02,08,35,902.27
2020,12,02,08,36,902.47
2020,12,02,08,37,902.47
2020,12,02,08,38,902.45
2020,12,02,08,39,902.50
2020,12,02,08,40,902.45
2020,12,02,08,41,902.27
2020,12,02,08,42,902.39
2020,12,02,08,43,902.67
2020,12,02,08,44,902.74
2020,12,02,08,45,903.78
2020,12,02,08,46,904.81
2020,12,02,08,47,904.81
2020,12,02,08,48,903.45
2020,12,02,08,49,902.21
2020,12,02,08,50,902.30
2020,12,02,08,51,902.71
2020,12,02,08,52,902.77
2020,12,02,08,53,902.83
2020,12,02,08,54,902.91
2020,12,02,08,55,902.78
2020,12,02,08,56,903.00
2020,12,02,08,57,903.41
2020,12,02,08,58,903.34
2020,12,02,08,59,903.18
2020,12,02,09,00,902.85
2020,12,02,09,01,902.51
2020,12,02,09,02,902.32
2020,12,02,09,03,902.38
2020,12,02,09,04,902.65
2020,12,02,09,05,902.94
2020,12,02,09,06,902.69
2020,12,02,09,07,902.67
2020,12,02,09,08,903.02
2020,12,02,09,09,903.09
2020,12,02,09,10,902.95
2020,12,02,09,11,902.51
2020,12,02,09,12,902.52
2020,12,02,09,13,902.55
2020,12,02,09,14,902.68
2020,12,02,09,15,902.77
2020,12,02,09,16,902.72
2020,12,02,09,17,902.94
2020,12,02,09,18,903.08
2020,12,02,09,19,902.44
2020,12,02,09,20,902.11
2020,12,02,09,21,902.00
2020,12,02,09,22,901.93
2020,12,02,09,23,902.18
2020,12,02,09,24,902.36
2020,12,02,09,25,902.23
2020,12,02,09,26,902.24
2020,12,02,09,27,902.27
2020,12,02,09,28,902.34
2020,12,02,09,29,902.37
2020,12,02,09,30,902.73
2020,12,02,09,31,902.83
2020,12,02,09,32,902.75
2020,12,02,09,33,903.01
2020,12,02,09,34,902.95
2020,12,02,09,35,902.88
2020,12,02,09,36,902.81
2020,12,02,09,37,902.93
2020,12,02,09,38,903.21
2020,12,02,09,39,902.91
2020,12,02,09,40,903.10
2020,12,02,09,41,903.19
2020,12,02,09,42,903.44
2020,12,02,09,43,903.72
2020,12,02,09,44,903.98
2020,12,02,09,45,903.99
2020,12,02,09,46,904.15
2020,12,02,09,47,904.00
2020,12,02,09,48,904.09
2020,12,02,09,49,903.77
2020,12,02,09,50,903.86
2020,12,02,09,51,903.72
2020,12,02,09,52,903.92
2020,12,02,09,53,903.68
2020,12,02,09,54,903.53
2020,12,02,09,55,903.70
2020,12,02,09,56,903.94
2020,12,02,09,57,904.23
2020,12,02,09,58,903.80
2020,12,02,09,59,903.52
2020,12,02,10,00,903.87
2020,12,02,10,01,903.85
2020,12,02,10,02,903.77
2020,12,02,10,03,903.71
2020,12,02,10,04,903.59
2020,12,02,10,05,903.56
2020,12,02,10,06,903.69
2020,12,02,10,07,903.90
2020,12,02,10,08,903.76
2020,12,02,10,09,903.48
2020,12,02,10,10,903.29
2020,12,02,10,11,903.41
2020,12,02,10,12,903.94
2020,12,02,10,13,903.90
2020,12,02,10,14,903.49
2020,12,02,10,15,903.47
2020,12,02,10,16,903.49
2020,12,02,10,17,903.82
2020,12,02,10,18,903.80
2020,12,02,10,19,903.71
2020,12,02,10,20,904.03
2020,12,02,10,21,903.91
2020,12,02,10,22,903.62
2020,12,02,10,23,903.47
2020,12,02,10,24,903.76
2020,12,02,10,25,903.85
2020,12,02,10,26,903.92
2020,12,02,10,27,903.87
2020,12,02,10,28,903.50
2020,12,02,10,29,903.39
2020,12,02,10,30,903.39
2020,12,02,10,31,903.73
2020,12,02,10,32,903.79
2020,12,02,10,33,904.75
2020,12,02,10,34,904.93
2020,12,02,10,35,904.64
2020,12,02,10,36,904.46
2020,12,02,10,37,904.35
2020,12,02,10,38,904.13
2020,12,02,10,39,904.10
2020,12,02,10,40,905.22
2020,12,02,10,41,905.11
2020,12,02,10,42,905.12
2020,12,02,10,43,905.29
2020,12,02,10,44,905.40
2020,12,02,10,45,905.14
2020,12,02,10,46,905.63
2020,12,02,10,47,905.43
2020,12,02,10,48,905.47
2020,12,02,10,49,905.28
2020,12,02,10,50,904.86
2020,12,02,10,51,905.07
2020,12,02,10,52,905.39
2020,12,02,10,53,905.36
2020,12,02,10,54,905.52
2020,12,02,10,55,905.50
2020,12,02,10,56,905.58
2020,12,02,10,57,905.41
2020,12,02,10,58,905.09
2020,12,02,10,59,905.61
2020,12,02,11,00,905.56
2020,12,02,11,01,905.29
2020,12,02,11,02,905.61
2020,12,02,11,03,905.66
2020,12,02,11,04,904.09
2020,12,02,11,05,904.24
2020,12,02,11,06,904.39
2020,12,02,11,07,904.28
2020,12,02,11,08,903.87
2020,12,02,11,09,903.83
2020,12,02,11,10,904.50
2020,12,02,11,11,904.57
2020,12,02,11,12,903.31
2020,12,02,11,13,903.31
2020,12,02,11,14,903.59
2020,12,02,11,15,903.62
2020,12,02,11,16,902.73
2020,12,02,11,17,902.64
2020,12,02,11,18,903.35
2020,12,02,11,19,903.88
2020,12,02,11,20,903.70
2020,12,02,11,21,903.60
2020,12,02,11,22,903.56
2020,12,02,11,23,903.56
2020,12,02,11,24,904.60
2020,12,02,11,25,904.64
2020,12,02,11,26,904.64
2020,12,02,11,27,905.38
2020,12,02,11,28,905.52
2020,12,02,11,29,905.89
2020,12,02,11,30,906.25
2020,12,02,11,31,906.27
2020,12,02,11,32,905.58
2020,12,02,11,33,905.82
2020,12,02,11,34,905.67
2020,12,02,11,35,905.43
2020,12,02,11,36,905.76
2020,12,02,11,37,905.55
2020,12,02,11,38,905.82
2020,12,02,11,39,905.67
2020,12,02,11,40,905.78
2020,12,02,11,41,905.50
2020,12,02,11,42,905.93
2020,12,02,11,43,906.44
2020,12,02,11,44,906.23
2020,12,02,11,45,906.33
2020,12,02,11,46,906.23
2020,12,02,11,47,906.47
2020,12,02,11,48,906.73
2020,12,02,11,49,906.23
2020,12,02,11,50,906.13
2020,12,02,11,51,906.33
2020,12,02,11,52,906.20
2020,12,02,11,53,906.03
2020,12,02,11,54,906.50
2020,12,02,11,55,905.97
2020,12,02,11,56,905.58
2020,12,02,11,57,906.20
2020,12,02,11,58,905.95
2020,12,02,11,59,906.33
2020,12,02,12,00,906.69
2020,12,02,12,01,906.33
2020,12,02,12,02,906.13
2020,12,02,12,03,905.85
2020,12,02,12,04,905.55
2020,12,02,12,05,905.94
2020,12,02,12,06,906.16
2020,12,02,12,07,906.25
2020,12,02,12,08,905.71
2020,12,02,12,09,905.53
2020,12,02,12,10,905.67
2020,12,02,12,11,905.80
2020,12,02,12,12,905.87
2020,12,02,12,13,906.04
2020,12,02,12,14,906.16
2020,12,02,12,15,906.23
2020,12,02,12,16,906.24
2020,12,02,12,17,906.35
2020,12,02,12,18,906.16
2020,12,02,12,19,906.14
2020,12,02,12,20,906.17
2020,12,02,12,21,905.56
2020,12,02,12,22,905.80
2020,12,02,12,23,906.25
2020,12,02,12,24,906.67
2020,12,02,12,25,906.61
2020,12,02,12,26,906.29
2020,12,02,12,27,906.50
2020,12,02,12,28,906.41
2020,12,02,12,29,905.54
2020,12,02,12,30,905.72
2020,12,02,12,31,905.73
2020,12,02,12,32,905.44
2020,12,02,12,33,905.75
2020,12,02,12,34,905.63
2020,12,02,12,35,905.72
2020,12,02,12,36,905.63
2020,12,02,12,37,904.73
2020,12,02,12,38,904.97
2020,12,02,12,39,905.11
2020,12,02,12,40,904.75
2020,12,02,12,41,905.29
2020,12,02,12,42,905.52
2020,12,02,12,43,905.22
2020,12,02,12,44,905.10
2020,12,02,12,45,904.02
2020,12,02,12,46,904.10
2020,12,02,12,47,903.92
2020,12,02,12,48,902.81
2020,12,02,12,49,902.92
2020,12,02,12,50,903.55
2020,12,02,12,51,903.46
2020,12,02,12,52,903.21
2020,12,02,12,53,902.98
2020,12,02,12,54,903.22
2020,12,02,12,55,904.26
2020,12,02,12,56,904.18
2020,12,02,12,57,904.11
2020,12,02,12,58,904.14
2020,12,02,12,59,904.02
2020,12,02,13,00,904.13
2020,12,02,13,01,903.76
2020,12,02,13,02,902.07
2020,12,02,13,03,901.93
2020,12,02,13,04,901.75
2020,12,02,13,05,901.04
2020,12,02,13,06,901.52
2020,12,02,13,07,901.72
2020,12,02,13,08,901.60
2020,12,02,13,09,901.23
2020,12,02,13,10,901.15
2020,12,02,13,11,901.15
2020,12,02,13,12,901.16
2020,12,02,13,13,901.26
2020,12,02,13,14,901.52
2020,12,02,13,15,901.74
2020,12,02,13,16,901.80
2020,12,02,13,17,901.61
2020,12,02,13,18,901.07
2020,12,02,13,19,901.28
2020,12,02,13,20,901.36
2020,12,02,13,21,901.17
2020,12,02,13,22,900.61
2020,12,02,13,23,900.84
2020,12,02,13,24,900.55
2020,12,02,13,25,900.45
2020,12,02,13,26,900.59
2020,12,02,13,27,900.95
2020,12,02,13,28,900.95
2020,12,02,13,29,900.37
2020,12,02,13,30,900.37
2020,12,02,13,31,900.53
2020,12,02,13,32,901.06
2020,12,02,13,33,901.09
2020,12,02,13,34,901.12
2020,12,02,13,35,901.07
2020,12,02,13,36,900.95
2020,12,02,13,37,901.25
2020,12,02,13,38,901.39
2020,12,02,13,39,901.16
2020,12,02,13,40,900.41
2020,12,02,13,41,900.10
2020,12,02,13,44,900.10
2020,12,02,13,45,900.10
2020,12,02,13,48,900.27
2020,12,02,13,49,900.27
2020,12,02,13,50,900.27
2020,12,02,13,51,900.27
2020,12,02,14,09,900.03
2020,12,02,14,10,900.03
2020,12,02,14,14,900.03
2020,12,02,14,15,900.03
2020,12,02,14,23,900.24
2020,12,02,14,24,900.24
2020,12,02,14,26,900.41
2020,12,02,14,27,900.52
2020,12,02,14,28,900.52
2020,12,02,14,29,900.50
2020,12,02,14,30,900.82
2020,12,02,14,31,900.53
2020,12,02,14,32,900.14
2020,12,02,14,33,900.14
2020,12,02,14,34,900.34
2020,12,02,14,35,900.33
2020,12,02,14,36,900.42
2020,12,02,14,37,900.58
2020,12,02,14,38,900.58
2020,12,02,14,44,900.24
2020,12,02,14,45,900.24
2020,12,02,14,46,900.24
2020,12,02,14,47,900.14
2020,12,02,14,48,900.39
2020,12,02,14,49,900.68
2020,12,02,14,50,900.47
2020,12,02,14,51,900.20
2020,12,02,14,54,900.03
2020,12,02,14,55,900.03
2020,12,02,15,02,900.14
2020,12,02,15,03,900.23
2020,12,02,15,04,900.27
2020,12,02,15,05,900.19
2020,12,02,15,06,900.27
2020,12,02,15,07,900.36
2020,12,02,15,08,900.22
2020,12,02,15,09,900.14
2020,12,02,15,10,900.17
2020,12,02,15,11,900.21
2020,12,02,15,12,900.55
2020,12,02,15,13,900.72
2020,12,02,15,14,900.79
2020,12,02,15,15,901.21
2020,12,02,15,16,901.30
2020,12,02,15,17,901.03
2020,12,02,15,18,900.72
2020,12,02,15,19,900.72
2020,12,02,15,20,900.60
2020,12,02,15,21,900.27
2020,12,02,15,22,900.09
2020,12,02,15,23,900.03
2020,12,02,15,25,901.36
2020,12,02,15,26,901.03
2020,12,02,15,27,900.87
2020,12,02,15,28,900.72
2020,12,02,15,29,900.35
2020,12,02,15,30,900.20
2020,12,02,15,31,900.20
2020,12,02,15,32,900.20
2020,12,02,15,39,900.17
2020,12,02,15,40,900.21
2020,12,02,15,41,900.37
2020,12,02,15,42,900.36
2020,12,02,15,43,900.16
2020,12,02,15,44,900.07
2020,12,02,15,45,900.14
2020,12,02,15,46,900.14
2020,12,02,15,47,900.14
2020,12,02,15,48,900.14
2020,12,02,15,53,900.10
2020,12,02,15,54,900.10
2020,12,02,15,55,900.10
2020,12,02,16,29,900.34
2020,12,02,16,30,900.23
2020,12,02,16,31,900.17
2020,12,02,18,09,900.20
2020,12,02,18,10,900.26
2020,12,02,18,11,900.55
2020,12,02,18,12,900.48
2020,12,02,18,13,900.67
2020,12,02,18,14,900.64
2020,12,02,18,15,900.52
2020,12,02,18,16,900.51
2020,12,02,18,17,900.09
2020,12,02,18,18,900.36
2020,12,02,18,19,900.37
2020,12,02,18,47,900.10
2020,12,02,18,50,900.81
2020,12,02,18,51,900.81
2020,12,02,18,56,900.03
2020,12,02,18,57,900.04
2020,12,02,18,58,900.27
2020,12,02,18,59,900.27
2020,12,02,19,08,900.17
2020,12,02,19,09,900.20
2020,12,02,19,10,900.78
2020,12,02,19,11,900.78
2020,12,02,19,12,900.75
2020,12,02,19,13,900.23
2020,12,02,19,14,900.47
2020,12,02,19,15,900.47
2020,12,02,19,20,900.51
2020,12,02,19,21,900.53
2020,12,02,19,22,900.75
2020,12,02,19,23,900.71
2020,12,02,19,24,900.35
2020,12,02,19,25,900.16
2020,12,02,19,26,900.36
2020,12,02,19,27,900.57
2020,12,02,19,28,900.42
2020,12,02,19,29,900.43
2020,12,02,19,30,900.21
2020,12,02,19,31,900.30
2020,12,02,19,32,900.17
2020,12,02,19,33,900.14
2020,12,02,19,34,900.20
2020,12,02,19,35,900.54
2020,12,02,19,36,900.27
2020,12,02,19,45,900.07
2020,12,02,19,46,900.07
2020,12,02,21,28,900.20
2020,12,02,21,29,900.40
2020,12,02,21,30,900.78
2020,12,02,21,31,900.92
2020,12,02,21,32,900.61
2020,12,02,21,33,900.20
2020,12,02,21,34,900.27
2020,12,02,21,35,900.40
2020,12,02,21,36,900.58
2020,12,02,21,37,900.58
2020,12,02,21,38,900.58
2020,12,02,22,59,900.47
2020,12,02,23,00,900.61
2020,12,02,23,01,900.43
2020,12,02,23,02,900.31
2020,12,02,23,04,900.14
2020,12,02,23,05,900.14
2020,12,02,23,06,900.10
2020,12,02,23,07,900.10
2020,12,02,23,49,900.07
2020,12,02,23,50,900.07
